Home > Weather > Fagernes > Past weeks

Flag for Norway Past Weather in Fagernes, Norway — Yesterday and Last 2 Weeks

Now
50 °F

Cool.


Feels Like: 50 °F
Forecast: 37 / 60 °F
Wind: No wind

Location: Fagernes

Current Time: Aug 29, 2016 at 4:13:24 AM

Latest Report: Aug 29, 2016 at 3:00 AM


Visibility: N/A

Pressure: 29.90 "Hg

Humidity: 91%

Dew Point: 47 °F

Location of FagernesLocation

Past Weather in Fagernes — Graph

°F

Fagernes Temperature Yesterday

Maximum temperature yesterday: 57 °F (at 5:00 PM)
Minimum temperature yesterday: 45 °F (at 3:00 AM)
Average temperature yesterday: 51 °F

High & Low Weather Summary for the Past Weeks

 TemperatureHumidityPressure
High75 °F (Aug 16, 6:00 PM)93% (Aug 14, 4:00 AM)30.22 "Hg (Aug 14, 4:00 AM)
Low45 °F (Aug 28, 3:00 AM)31% (Aug 16, 6:00 PM)29.54 "Hg (Aug 26, 4:00 PM)
Average58 °F73%30.01 "Hg
* Reported Aug 14 2:00 AM — Aug 29 2:00 AM, Fagernes, Weather by CustomWeather, © 2016

Note: Actual official high and low records may vary slightly from our data, if they occured in-between our weather recording intervals... More about our weather records

Advertising

Fagernes Weather History for the Previous 24 Hours

Scroll right to see more
 ConditionsComfort  
Time TempWeatherWind HumidityBarometerVisibility
2:00 AM
Mon, Aug 29
50 °FCool.No wind90%29.91 "HgN/A
12:00 AM52 °FCool.No wind80%29.95 "HgN/A
11:00 PM
Sun, Aug 28
52 °FCool.No wind83%29.96 "HgN/A
10:00 PM53 °FCool.No wind77%29.97 "HgN/A
9:00 PM53 °FCool.No wind76%29.98 "HgN/A
8:00 PM54 °FPartly sunny.1 mph72%29.97 "Hg19 mi
7:00 PM56 °FCool.1 mph66%29.98 "HgN/A
6:00 PM56 °FCool.2 mph66%29.99 "HgN/A
5:00 PM57 °FScattered clouds.2 mph63%30.01 "Hg19 mi
4:00 PM56 °FCool.2 mph66%30.03 "HgN/A
3:00 PM55 °FCool.2 mph67%30.05 "HgN/A
2:00 PM55 °FOvercast.2 mph63%30.05 "Hg16 mi
1:00 PM54 °FCool.1 mph67%30.06 "HgN/A
12:00 PM52 °FCool.No wind77%30.09 "HgN/A
11:00 AM51 °FOvercast.No wind74%30.10 "Hg19 mi
10:00 AM49 °FCool.No wind78%30.11 "HgN/A
9:00 AM48 °FCool.No wind81%30.13 "HgN/A
8:00 AM47 °FOvercast.No wind84%30.14 "Hg19 mi
7:00 AM46 °FCool.No wind85%30.14 "HgN/A
6:00 AM46 °FCool.No wind87%30.15 "HgN/A
5:00 AM46 °FPassing clouds.No wind86%30.14 "Hg19 mi
4:00 AM46 °FCool.No wind86%30.14 "HgN/A
Weather by CustomWeather, © 2016

See weather overviewHow to use our weather pages